Regional Weather Roundup
Issued by NWS

Home | Current Version | Previous Version | Text Only | Print | Product List | Glossary Off
Versions: 1 2 3 4 5 6 7 8 9 10 11 12 13 14 15 16 17 18 19 20 21 22 23 24 25 26 27 28 29 30 31 32 33 34 35 36 37 38 39 40 41 42 43 44 45 46 47 48 49 50

000
ASUS43 KBIS 290910
RWRND

NORTH DAKOTA REGIONAL WEATHER ROUNDUP
NATIONAL WEATHER SERVICE BISMARCK ND
400 AM CDT FRI AUG 29 2014

NOTE: "FAIR" INDICATES FEW OR NO CLOUDS BELOW 12,000 FEET WITH NO
SIGNIFICANT WEATHER AND/OR OBSTRUCTIONS TO VISIBILITY.


NDZ001>003-009>011-017-291000-
NORTHWEST NORTH DAKOTA

CITY           SKY/WX    TMP DP  RH WIND       PRES   REMARKS
WILLISTON      MOCLDY    65  53  65 N20G29    29.86R
MINOT          PTCLDY    67  62  84 SW12      29.73R
MINOT AFB      CLEAR     64  64  99 W22       29.73R
$$

NDZ018>021-031>035-040>046-291000-
SOUTHWEST NORTH DAKOTA

CITY           SKY/WX    TMP DP  RH WIND       PRES   REMARKS
BISMARCK       MOCLDY    60  60 100 CALM      29.80S FOG
DICKINSON      PTCLDY    58  54  86 S6        29.79F
GARRISON         N/A     64  63  96 S8        29.74F
HETTINGER ARPT FOG       53  52  96 CALM      29.84S VSB 1/2
$$

NDZ004>008-012>016-024-026-027-054-291000-
NORTHEAST NORTH DAKOTA

CITY           SKY/WX    TMP DP  RH WIND       PRES   REMARKS
GRAND FORKS    CLOUDY    67  64  90 S8        29.77F
GRND FRKS AFB  CLOUDY    66  66 100 SW9       29.79F
DEVILS LAKE    CLOUDY    66  61  82 S13       29.76F
$$

NDZ022-023-025-028>030-036>039-047>053-291000-
SOUTHEAST NORTH DAKOTA

CITY           SKY/WX    TMP DP  RH WIND       PRES   REMARKS
FARGO          CLOUDY    66  64  93 S6        29.79S
JAMESTOWN      FOG       65  64  97 S6        29.79S VSB 1/2
$$



USA.gov is the U.S. government's official web portal to all federal, state and local government web resources and services.